+ View the NASA Portal
+ Center for Near-Earth Object Studies
IMPORTANT:
The SSD Announcement email list is now available. Major changes are coming in the near future, including possible hostname and/or URL changes. To be notified of such changes, subscribe to this email list.
Please visit
this page
for more details.
Don't show this message again
JPL Small-Body Database Browser
Search:
[
help
]
109031 (2001 QZ10)
Classification:
Main-belt Asteroid
SPK-ID:
2109031
[
Ephemeris
|
Orbit Diagram
|
Orbital Elements
|
Mission Design
|
Physical Parameters
|
Discovery Circumstances
]
[ show orbit diagram ]
Orbital Elements at Epoch 2458600.5 (2019-Apr-27.0) TDB
Reference:
JPL 12
(heliocentric ecliptic J2000)
Element
Value
Uncertainty (1-sigma)
Units
e
.1816590796029833
7.3662e-08
a
2.570704471166428
1.9237e-08
au
q
2.103712663003061
1.8048e-07
au
i
12.79829039942311
5.9038e-06
deg
node
329.3287779720417
2.5268e-05
deg
peri
55.83890722228961
3.0875e-05
deg
M
67.93665290429252
2.0947e-05
deg
t
p
2458316.395376307927
(2018-Jul-16.89537631)
8.5778e-05
TDB
period
1505.485774714757
4.12
1.6899e-05
4.627e-08
d
yr
n
.2391254743461185
2.6841e-09
deg/d
Q
3.037696279329796
2.2732e-08
au
Orbit Determination Parameters
# obs. used (total)
415
data-arc span
7289 days (19.96 yr)
first obs. used
1999-02-12
last obs. used
2019-01-27
planetary ephem.
DE431
SB-pert. ephem.
SB431-N16
condition code
0
norm. resid. RMS
.51379
source
ORB
producer
Otto Matic
solution date
2019-Jul-13 09:40:14
Additional Information
Earth MOID
= 1.13296 au
Jupiter MOID
= 2.535 au
T_jup
= 3.372
[ show covariance matrix ]
[
Ephemeris
|
Orbit Diagram
|
Orbital Elements
|
Mission Design
|
Physical Parameters
|
Discovery Circumstances
]
Physical Parameter Table
Parameter
Symbol
Value
Units
Sigma
Reference
Notes
absolute magnitude
H
15.5
n/a
MPO412770
109031 (2001 QZ10)
Discovered 2001-Aug-16 by LINEAR at Socorro
Reference:
20051019/Numbers.arc
Last Updated:
2005-10-26
[
Ephemeris
|
Orbit Diagram
|
Orbital Elements
|
Mission Design
|
Physical Parameters
|
Discovery Circumstances
]
2019-Dec-07 04:22 UT
(server date/time)
Site Manager:
Ryan S. Park
Webmaster
:
Alan B. Chamberlin